TimeEST,TemperatureF,Dew PointF,Humidity,Sea Level PressureIn,VisibilityMPH,Wind Direction,Wind SpeedMPH,Gust SpeedMPH,PrecipitationIn,Events,Conditions,WindDirDegrees,DateUTC
12:54 AM,37.0,21.9,54,30.14,9.0,Calm,Calm,-,0.00,Snow,Light Snow,0,2012-11-09 05:54:00
1:54 AM,30.9,24.1,76,30.15,9.0,Calm,Calm,-,0.00,,Clear,0,2012-11-09 06:54:00
2:54 AM,35.1,23.0,61,30.16,10.0,Calm,Calm,-,0.00,,Clear,0,2012-11-09 07:54:00
3:54 AM,34.0,24.1,67,30.16,10.0,Calm,Calm,-,0.00,,Clear,0,2012-11-09 08:54:00
4:54 AM,32.0,25.0,75,30.18,10.0,Calm,Calm,-,0.00,,Clear,0,2012-11-09 09:54:00
5:54 AM,30.0,25.0,82,30.19,10.0,Calm,Calm,-,N/A,,Clear,0,2012-11-09 10:54:00
6:54 AM,30.0,25.0,82,30.21,10.0,SSE,3.5,-,0.00,,Clear,160,2012-11-09 11:54:00
7:54 AM,39.0,30.0,70,30.23,10.0,Calm,Calm,-,0.00,,Clear,0,2012-11-09 12:54:00
8:54 AM,48.0,30.0,50,30.24,10.0,West,3.5,-,N/A,,Clear,260,2012-11-09 13:54:00
9:54 AM,51.1,30.0,44,30.26,10.0,WSW,5.8,-,N/A,,Clear,250,2012-11-09 14:54:00
10:54 AM,55.0,30.0,38,30.25,10.0,Calm,Calm,-,N/A,,Clear,0,2012-11-09 15:54:00
11:54 AM,57.0,28.9,34,30.23,10.0,Variable,6.9,-,N/A,,Clear,0,2012-11-09 16:54:00
12:54 PM,60.1,28.9,31,30.21,10.0,Calm,Calm,-,N/A,,Clear,0,2012-11-09 17:54:00
1:54 PM,62.1,28.9,29,30.20,10.0,Calm,Calm,-,N/A,,Clear,0,2012-11-09 18:54:00
2:54 PM,62.1,28.9,29,30.19,10.0,Calm,Calm,-,N/A,,Clear,0,2012-11-09 19:54:00
3:54 PM,62.1,28.9,29,30.19,10.0,Calm,Calm,-,N/A,,Clear,0,2012-11-09 20:54:00
4:54 PM,55.9,30.0,37,30.19,10.0,Calm,Calm,-,N/A,,Clear,0,2012-11-09 21:54:00
5:54 PM,48.9,30.0,48,30.21,10.0,Calm,Calm,-,N/A,,Clear,0,2012-11-09 22:54:00
6:54 PM,45.0,30.9,58,30.23,10.0,Calm,Calm,-,N/A,,Clear,0,2012-11-09 23:54:00
7:54 PM,42.1,32.0,67,30.23,10.0,Calm,Calm,-,N/A,,Clear,0,2012-11-10 00:54:00
8:54 PM,39.0,30.9,73,30.24,10.0,Calm,Calm,-,N/A,,Clear,0,2012-11-10 01:54:00
9:54 PM,37.0,30.9,79,30.25,10.0,Calm,Calm,-,N/A,,Clear,0,2012-11-10 02:54:00
10:54 PM,37.9,32.0,79,30.25,10.0,Calm,Calm,-,N/A,,Clear,0,2012-11-10 03:54:00
11:54 PM,36.0,30.9,82,30.25,10.0,South,3.5,-,N/A,,Clear,190,2012-11-10 04:54:00